Miscellaneous Local Product
Issued by NWS North Platte, NE

Home | Current Version | Previous Version | Text Only | Print | Product List | Glossary On
Versions: 1 2 3 4 5 6 7 8 9 10 11 12 13 14 15 16 17 18 19 20 21 22 23 24 25 26 27 28 29 30 31 32 33 34 35 36 37 38 39 40 41 42 43 44 45 46 47 48 49 50
000
AXUS43 KLBF 230810
MISLBF


WESTERN AND NORTH CENTRAL NEBRASKA HOURLY WEATHER ROUNDUP
NATIONAL WEATHER SERVICE NORTH PLATTE NE
300 AM CDT TUE SEP 23 2014

***STATIONS NOT REPORTING VARIABLES SUCH AS SKY/WEATHER OR
PRESSURE ARE PROVIDED BY THE NEBRASKA DEPARTMENT OF
ROADS...RAWS...AND APRS NETWORKS...AND ARE NOT UNDER
NATIONAL WEATHER SERVICE QUALITY CONTROL***

...OBSERVATIONS IN AND NEAR THE EASTERN PANHANDLE OF NEBRASKA...

CITY           SKY/WX    TMP DP  RH WIND       PRES   REMARKS
PINE RIDGE     CLEAR     58  52  80 SW14G23   29.95F
CHADRON        PTCLDY    59  53  80 CALM      29.94S
ALLIANCE       CLEAR     50  49  96 SE3       29.99F
SIDNEY         MOCLDY    58  55  90 SW10      30.06S
WHITECLAY        N/A     53  48  83 SE8         N/A
RUSHVILLE        N/A     50  48  95 W7          N/A
LISCO            N/A     57  54  88 NE8         N/A
BIG SPRINGS      N/A     60  56  88 S8          N/A
$$

...OBSERVATIONS IN NORTH CENTRAL NEBRASKA...

CITY           SKY/WX    TMP DP  RH WIND       PRES   REMARKS
VALENTINE      CLOUDY    58  53  84 SE13      30.01F
THEDFORD       MOCLDY    58  53  84 SE10G18   30.03F
AINSWORTH      MOCLDY    57  52  84 SE13G26   30.02F
O`NEILL        RAIN      58  57  95 S17G25    30.09F
ORD            CLOUDY    58  52  80 SE12      30.09F
BROKEN BOW     CLOUDY    58  53  84 SE13G22   30.06F
SPRINGVIEW       N/A     58  53  84 SE6G17      N/A
ROSE             N/A     59  58  97 E17         N/A
NEWPORT          N/A     60  56  85 SE18        N/A
COMSTOCK         N/A     60  57  91 S13         N/A
CHAMBERS         N/A     57  55  95 E3G12       N/A
$$

...OBSERVATIONS IN SOUTHWEST NEBRASKA AND FAR NORTHEAST COLORADO...

CITY           SKY/WX    TMP DP  RH WIND       PRES   REMARKS
WRAY           FAIR      57  56  95 CALM      30.07F
HOLYOKE        FAIR      59  55  88 W5        30.07S
IMPERIAL       CLOUDY    58  55  90 SW5       30.04F
OGALLALA       MOCLDY    59  56  89 W5        30.03S
NORTH PLATTE   CLOUDY    55  53  93 E7        30.03F
MCCOOK         CLOUDY    61  57  87 S10G23    30.01F
LEXINGTON      CLOUDY    58  56  94 SE13G20   30.06S
PAXTON           N/A     60  56  88 S6          N/A
SUTHERLAND       N/A     54  51  90 CALM        N/A
BRADY            N/A     57  54  90 CALM        N/A
GOTHENBURG       N/A     58  52  80 S5          N/A
CALLAWAY         N/A     55  53  92 S12         N/A
$$

...SOME WEATHER OBSERVATIONS FROM AROUND THE REGION...

CITY           SKY/WX    TMP DP  RH WIND       PRES   REMARKS
DENVER         PTCLDY    57  51  80 S12       30.14S
LARAMIE        CLEAR     49  43  80 W12       30.21R
CHEYENNE       MOCLDY    57  43  59 W14       30.15R
SCOTTSBLUFF    CLEAR     51  50  96 E7        30.01F
RAPID CITY     MOCLDY    57  54  89 SE8       29.92F
PIERRE         CLOUDY    62  54  74 S17       29.95F
WINNER         CLOUDY    62  54  74 S16G24    30.00F
SIOUX FALLS    CLOUDY    60  50  69 S9        30.11F
OMAHA          CLOUDY    62  52  69 S9        30.17F
GRAND ISLAND   LGT RAIN  58  53  84 SE12G20   30.13F
KANSAS CITY    MOCLDY    55  51  86 S5        30.22F
WICHITA        MOCLDY    61  51  70 S12       30.17F
LIBERAL        MOCLDY    66  52  59 S13       30.16S
GOODLAND       MOCLDY    58  56  93 S14       30.08F
$$



USA.gov is the U.S. government's official web portal to all federal, state and local government web resources and services.